Location: Navalespino
(40.5894°N, 4.2660°W)
Time: 13:46:19
(UTC+00:00)

Okean 2 Rocket - Pass Details

Date: 18 April 2024
Orbit: 613 x 639 km, 82.5° (Epoch: 23 May)

Event Time Altitude Azimuth Distance (km) Brightness Sun altitude
Exits shadow 20:17:48 - 170° (S) 2,069 5.4 -14.5°
Reaches altitude 10° 20:17:55 10° 170° (S) 2,023 5.3 -14.5°
Maximum altitude 20:22:18 53° 94° (E) 783 3.2 -15.2°
Drops below altitude 10° 20:26:41 10° 17° (NNE) 2,032 5.9 -15.9°
Sets 20:28:58 0° 13° (NNE) 2,943 6.8 -16.3°
